Theta_e
323 321 315 308 308 307 307 307 309 309 308 307 307 307 307 307 307 307 308 311 314 321 320 315 316 312 312 310 307 306 306 307 310
321 316 308 307 306 306 306 307 309 307 307 307 306 306 306 306 307 308 309 309 312 311 314 316 316 314 308 306 306 306 306 305 305
316 309 307 306 306 306 306 306 306 306 306 306 305 305 305 306 307 308 307 307 309 307 308 310 313 313 311 307 305 304 305 306 306
309 308 306 306 306 306 306 306 306 305 305 305 305 305 305 306 306 307 307 307 307 306 306 306 307 310 308 307 304 303 303 303 303
308 307 306 306 306 305 305 306 305 305 304 304 305 305 305 305 306 306 306 305 305 304 304 303 304 305 306 304 304 303 302 302 302
307 307 306 305 305 305 306 305 305 305 304 304 305 305 305 305 305 305 304 304 304 303 303 303 303 302 302 302 302 301 301 300 301
307 307 305 305 304 304 305 305 305 305 305 305 304 305 304 304 304 304 304 303 304 302 303 303 303 302 302 301 301 301 300 300 300
307 306 305 304 304 305 305 306 305 305 305 305 305 304 303 303 303 303 303 303 303 303 302 303 303 303 302 301 301 301 301 301 300
307 306 306 305 305 306 305 305 305 304 305 304 304 304 302 302 302 302 302 302 303 302 302 302 302 303 302 302 301 301 301 301 300
307 306 306 305 305 305 305 305 305 305 304 303 303 303 301 301 301 301 301 301 301 300 300 301 301 302 302 301 301 301 300 300 300
306 306 306 306 305 304 305 306 305 304 304 303 302 302 301 300 300 299 300 301 301 300 299 300 300 301 301 301 300 300 300 299 298
306 306 306 305 305 304 304 304 305 304 303 302 302 302 300 299 299 298 299 300 301 300 299 300 300 300 299 299 299 298 298 298 298
306 306 306 305 305 304 304 305 304 304 303 303 303 302 300 299 299 298 298 299 300 299 299 299 300 299 299 298 298 298 297 297 298
305 306 305 305 305 305 305 305 305 304 303 302 303 302 301 299 299 298 298 298 299 299 299 299 300 299 299 298 298 298 298 298 297
305 305 304 304 305 305 304 304 303 304 304 303 302 303 302 300 299 299 298 298 299 298 299 299 300 300 299 299 297 296 296 296 296
305 305 304 304 305 305 304 303 304 303 303 303 302 302 302 301 300 299 299 298 299 298 299 299 300 300 299 300 297 296 296 295 295
305 305 304 304 304 304 304 304 304 304 304 303 303 302 302 302 302 300 299 298 300 299 299 299 300 300 299 299 297 296 296 296 295
306 304 304 304 304 304 304 304 304 305 305 304 305 305 305 304 303 302 300 299 300 300 299 299 301 300 299 299 299 298 296 296 295
306 305 304 304 305 304 305 304 304 304 306 305 305 306 306 305 305 303 302 299 301 300 300 300 300 300 299 299 299 297 296 296 295
308 306 305 303 304 304 304 304 303 304 304 305 305 306 306 306 305 305 304 302 302 301 301 300 300 300 299 299 299 297 297 297 296
Wind_Speed
19 16 13 14 15 16 16 15 16 15 14 15 14 13 12 11 12 12 14 16 16 16 16 15 15 14 13 11 9 7 5 3 1
19 15 15 16 17 18 18 16 16 16 15 15 14 13 13 13 13 13 14 15 15 14 15 17 16 14 11 10 9 9 9 7 6
18 18 17 18 19 19 19 17 16 16 16 15 14 14 13 13 12 13 13 13 12 12 13 14 15 15 13 11 9 7 7 8 7
20 19 19 20 21 21 20 18 17 16 16 15 14 14 14 12 11 11 13 12 11 10 11 11 12 13 13 12 11 9 8 7 7
21 21 22 22 23 22 20 18 18 17 16 15 14 14 13 11 11 11 12 12 11 10 11 10 10 11 12 12 12 11 10 10 9
23 23 24 24 24 23 20 18 18 18 16 15 14 14 13 11 11 11 11 11 11 10 10 10 9 10 11 11 11 12 12 12 11
25 25 25 25 25 24 21 20 18 18 16 17 15 14 12 11 11 11 11 10 11 10 10 9 9 10 10 10 11 11 11 12 12
27 28 28 27 27 26 24 21 19 18 16 16 16 14 12 11 10 11 10 10 10 9 9 8 9 10 11 11 10 10 11 12 12
29 28 28 27 26 23 23 22 22 20 19 16 16 15 13 12 10 11 10 9 9 9 9 9 10 10 10 10 10 10 11 11 12
31 30 28 27 25 24 24 23 21 20 19 18 15 14 13 12 10 9 9 8 9 8 8 8 9 9 10 10 10 10 11 12 12
33 32 30 28 26 24 23 22 21 20 18 18 16 14 12 11 10 8 7 8 7 6 6 7 7 8 9 9 9 10 11 12 13
33 32 32 30 28 27 25 24 22 21 20 17 16 14 12 11 10 8 6 6 5 4 5 5 5 6 7 9 11 11 12 14 15
34 33 33 31 29 28 26 24 23 21 18 17 15 13 12 11 10 8 6 5 4 3 2 3 5 6 7 9 10 11 13 14 16
34 34 33 32 30 28 26 25 22 22 20 18 15 13 12 11 10 9 8 5 4 3 1 2 4 5 7 8 10 11 13 15 16
35 34 34 33 31 30 27 25 24 19 18 18 15 12 12 12 11 11 9 8 5 4 3 2 5 6 8 9 8 10 12 15 16
36 35 35 33 32 30 29 27 25 24 21 17 15 13 12 12 12 12 11 11 8 5 5 4 5 6 8 10 10 10 13 15 16
37 36 36 34 32 31 30 29 29 24 22 18 14 9 12 14 14 14 13 12 9 8 7 6 7 8 9 10 11 12 14 16 17
37 37 35 33 32 32 30 29 26 24 24 19 11 7 7 12 16 16 15 14 11 10 9 8 9 9 10 11 12 14 15 17 18
35 36 35 33 33 32 30 28 27 22 20 21 18 9 5 6 4 14 15 16 13 12 11 11 10 11 12 13 14 15 17 19 19
36 35 35 34 33 32 31 30 28 24 21 20 18 16 12 9 7 4 10 16 14 13 13 13 13 13 13 14 15 17 19 21 21
Wind_Direction
179 182 176 169 164 163 162 160 152 148 130 126 127 121 114 113 109 106 102 93 96 83 77 71 67 69 67 74 85 92 87 87 72
179 180 173 168 162 160 161 162 147 139 135 129 128 120 116 116 116 110 103 94 90 90 78 70 66 65 68 65 69 76 77 74 69
179 174 172 167 161 160 162 159 150 144 136 131 127 120 118 119 114 108 103 97 93 89 86 77 69 64 61 61 56 58 66 65 59
177 172 170 166 162 160 165 154 148 143 139 136 127 122 120 122 116 107 103 97 92 86 81 78 73 68 65 59 51 44 42 55 63
177 170 168 166 163 161 167 153 147 143 143 136 130 127 127 130 121 111 104 97 93 86 80 72 67 67 64 59 56 48 36 27 26
176 169 169 167 166 161 165 153 149 144 143 136 131 130 132 131 122 114 103 99 94 87 79 71 65 59 54 50 46 49 46 35 25
175 168 169 167 167 164 161 155 151 147 146 140 136 134 134 131 122 110 101 97 90 84 76 72 64 59 52 43 37 31 33 36 29
177 170 170 169 169 165 161 154 151 147 147 146 142 140 140 135 124 111 102 95 87 81 71 61 55 49 39 35 33 31 25 21 21
178 175 171 173 170 164 157 156 153 151 150 151 148 147 147 140 133 118 108 98 87 77 66 54 46 42 37 32 24 23 24 18 14
178 176 172 173 168 168 162 159 157 155 154 155 154 150 151 145 144 133 121 110 96 81 69 54 44 36 32 29 26 23 22 18 12
180 175 173 172 169 169 166 160 159 160 159 159 155 158 159 155 154 148 133 115 111 97 77 61 46 34 25 21 22 20 16 19 16
182 177 173 174 171 171 170 165 162 168 162 165 158 162 166 165 165 161 149 135 124 107 77 54 36 26 16 10 7 10 14 11 8
182 179 177 177 177 176 173 171 169 170 167 167 164 169 171 178 178 176 171 159 147 133 78 21 14 7 6 1 357 359 6 6 1
186 183 181 180 180 178 178 175 178 172 170 169 170 177 178 190 190 194 196 186 180 187 202 330 350 349 355 350 346 352 355 355 353
187 185 186 183 182 181 181 181 174 177 178 172 175 181 192 202 201 207 212 210 214 221 243 300 332 338 336 339 338 343 344 345 344
188 189 189 188 187 186 184 183 182 178 180 179 178 187 203 213 216 217 220 225 228 239 253 281 317 321 327 331 332 329 333 336 337
191 192 192 192 190 190 190 191 186 186 183 184 183 193 218 225 226 227 224 232 235 245 256 271 302 309 314 320 320 321 326 330 331
194 196 197 196 197 197 196 198 202 193 187 187 180 181 206 217 227 232 228 231 240 247 259 272 292 299 306 311 313 317 323 326 325
198 200 200 201 202 202 203 205 205 207 205 197 203 200 182 186 210 229 236 229 240 247 262 272 287 295 302 303 308 311 319 323 323
201 202 205 205 207 208 208 211 209 210 212 218 218 222 231 236 236 248 240 243 243 248 264 273 285 288 294 297 302 309 315 320 320